星链-3823 (STARLINK-3823 )

导读 | 星芒AI

STARLINK-3823 是 SpaceX Starlink 卫星互联网项目中的一颗低轨卫星,属于 Starlink 群体通信网络的一部分。该卫星由 SpaceX 制造并发射,旨在为全球用户提供高速、低延迟的互联网服务。它运行在约 550 公里的轨道高度,与其他 Starlink 卫星协同工作,提升网络覆盖与连接质量。STARLINK-3823 采用先进的相控阵天线和激光通信技术,支持高效的数据传输,助力偏远地区实现网络接入。

基本信息
目录编号:
52336
目录名称:
STARLINK-3823
国际标识:
2022-045F
轨道中心:
EARTH
卫星名称:
星链-3823
卫星全名:
星链-3823 (STARLINK-3823 )
卫星状态:
在轨 (已飞行1332 天)
发射日期:
2022-04-29 UTC
国别 :
美国 (US)
星等 :
--
轨道信息
数据来源 国际轨道数据 AOE轨道数据
星历时间 2025-12-21T04:31:07+0800
7小时前
查看轨道信息
2025-12-20T20:00:00+0800
15小时前
查看轨道信息
半长轴 6917.86km 6917.859km
偏心率 0.0001507 0.0000969
轨道倾角 53.216° 53.215°
近地点辐角 90.638° 68.027°
升交点赤经 202.820° 204.414°
平近点角 269.478° 163.062°
近地点 538.68km 539.051km
远地点 540.766km 540.393km
周期 95.437分钟 95.437分钟
每日圈数 15.088469 15.088472
详细信息
固有亮度:
5
最大亮度:
2.5
卫星平台:
Starlink v1.5
覆盖范围:
全球
运营商:
太空探索技术公司
运营商所在国:
美国
制造商(研发单位):
太空探索技术公司
制造商所在国:
美国
使用方式:
暂无
卫星简介
星链(Starlink)计划是由太空探索技术公司(SpaceX)提出的一个巨型低轨卫星互联网星座项目,计划在2019年至2024年间在太空搭建由约1.2万颗卫星组成的“星链”网络,其中1584颗将部署在地球上空550千米处的近地轨道,并从2020年开始工作。该卫星仍在工作。
2D轨道图
3D轨道图
轨道高度分析图
轨道倾角分析图
轨道综合分析图
查看轨道综合分析图